This is the latest recevied weather packets stored in our database for station/object KO4YAW. If no packets are shown the sender has not sent any weather packets the latest 10 day(s).
| Time | Temp. | Humidity | Pressure | Rain* | Wind** | Luminosity | Snow |
|---|---|---|---|---|---|---|---|
| 1777683632 | 15° C | 21% | 1019.1 hPa | 0 mm | - | 44 W/m² | - |
| 1777682732 | 16.11° C | 20% | 1018.9 hPa | 0 mm | - | 129 W/m² | - |
| 1777681832 | 16.67° C | 20% | 1019 hPa | 0 mm | - | 169 W/m² | - |
| 1777680932 | 16.67° C | 20% | 1018.9 hPa | 0 mm | - | 214 W/m² | - |
| 1777680032 | 16.11° C | 18% | 1018.8 hPa | 0 mm | - | 260 W/m² | - |
| 1777679132 | 16.11° C | 19% | 1018.9 hPa | 0 mm | - | 314 W/m² | - |
| 1777678232 | 16.11° C | 18% | 1018.9 hPa | 0 mm | - | 364 W/m² | - |
| 1777677332 | 15.56° C | 18% | 1018.8 hPa | 0 mm | - | 419 W/m² | - |
| 1777676432 | 16.11° C | 19% | 1018.8 hPa | 0 mm | - | 473 W/m² | - |
| 1777675532 | 16.11° C | 20% | 1018.9 hPa | 0 mm | - | 529 W/m² | - |
| 1777674633 | 15.56° C | 19% | 1018.9 hPa | 0 mm | - | 580 W/m² | - |
| 1777673732 | 16.11° C | 20% | 1019.1 hPa | 0 mm | - | 502 W/m² | - |
| 1777672832 | 15.56° C | 21% | 1019.1 hPa | 0 mm | - | 706 W/m² | - |
| 1777671932 | 15.56° C | 22% | 1019.1 hPa | 0 mm | - | 769 W/m² | - |
| 1777671032 | 15° C | 24% | 1019.5 hPa | 0 mm | - | 864 W/m² | - |
| 1777670132 | 15° C | 25% | 1019.5 hPa | 0 mm | - | 877 W/m² | - |
| 1777669232 | 15.56° C | 25% | 1019.6 hPa | 0 mm | - | 987 W/m² | - |
| 1777668332 | 14.44° C | 25% | 1019.5 hPa | 0 mm | - | 958 W/m² | - |
| 1777667432 | 14.44° C | 26% | 1019.7 hPa | 0 mm | - | 976 W/m² | - |
| 1777666532 | 14.44° C | 27% | 1020.1 hPa | 0 mm | - | 255 W/m² | - |
| 1777665632 | 13.33° C | 28% | 1019.8 hPa | 0 mm | - | 106 W/m² | - |
| 1777664732 | 13.33° C | 30% | 1020.2 hPa | 0 mm | - | 217 W/m² | - |
| 1777663832 | 13.89° C | 30% | 1019.8 hPa | 0 mm | - | 112 W/m² | - |
| 1777662932 | 13.33° C | 29% | 1019.8 hPa | 0 mm | - | 111 W/m² | - |
| 1777662032 | 12.78° C | 30% | 1019.9 hPa | 0 mm | - | 113 W/m² | - |
* Rain since midnight (hover to see other rain measurements)
** Current wind speed in m/s (hover to see current wind gust speed)